[[{"header":{"parameterUnit":"m.s-1","parameterCategory":1,"la1":30.2991,"la2":30.254,"lo1":-89.0895,"lo2":-89.0444,"dy":0.0017,"dx":0.0017,"nx":28,"ny":28,"refTime":"2023-10-27T21:00:00:Z","depth":0,"parameterNumber":2,"parameterNumberName":"U-component_of_WINDS"},"data":[0,0,0,0,0,0,0,0,0,0,0,0,0,0,0,0,0,0,0,0,0,0,0,0,0,0,0,0,0,0,0,0,0,0,0,0,0,0,0,0,0,0,0,0,0,0,0,0,0,0,0,0,0,0,0,0,0,0,-2.515,-2.515,0,-2.5181,-2.5182,-2.5182,-2.5166,-2.5165,-2.5164,-2.5163,-2.5194,-2.5195,-2.5197,0,0,0,0,0,0,0,0,0,0,0,0,0,-2.5078,-2.508,-2.515,-2.515,-2.5151,-2.5181,-2.5182,-2.5182,-2.5166,-2.5165,-2.5164,-2.5163,-2.5193,-2.5195,-2.5197,0,0,0,0,0,0,0,0,0,0,0,0,0,-2.5109,-2.508,-2.515,-2.5147,-2.5147,-2.5181,-2.5182,-2.5182,-2.5166,-2.5165,-2.5164,-2.5163,-2.5192,-2.5195,-2.5197,-2.5236,0,0,-2.5204,-2.5205,0,0,0,0,0,0,0,0,-2.5108,-2.5112,-2.5147,-2.5147,-2.5147,-2.5168,-2.5167,-2.52,-2.5166,-2.5159,-2.5163,-2.5162,-2.5186,-2.5189,-2.5197,-2.5238,-2.5239,-2.5204,-2.5206,-2.5207,-2.5208,0,0,0,0,0,0,0,-2.5106,-2.5111,-2.5162,-2.5147,-2.5147,-2.5144,-2.5147,-2.5174,-2.5179,-2.5159,-2.5158,-2.5162,-2.5186,-2.5195,-2.5198,-2.5239,-2.5204,-2.5207,-2.5208,-2.5209,-2.5317,-2.5319,0,0,0,0,0,0,-2.5104,-2.5109,-2.5161,-2.5163,-2.5124,-2.5146,-2.515,-2.5163,-2.5179,-2.518,-2.5163,-2.5161,-2.5192,-2.5195,-2.5199,-2.5247,-2.5207,-2.5209,-2.521,-2.5316,-2.5317,-2.5319,0,0,0,0,0,0,-2.5102,-2.5108,-2.516,-2.5136,-2.5142,-2.5149,-2.5164,-2.5164,-2.5173,-2.5182,-2.5182,-2.5171,-2.5191,-2.5196,-2.5228,-2.5248,-2.521,-2.5212,-2.5314,-2.5316,-2.5318,-2.5344,0,0,0,0,0,0,-2.51,-2.5108,-2.5122,-2.5136,-2.5144,-2.5188,-2.5165,-2.5165,-2.5177,-2.5175,-2.519,-2.5191,-2.519,-2.5225,-2.523,-2.5251,-2.5214,-2.5312,-2.5315,-2.5318,-2.5341,-2.5346,-2.5351,0,0,0,0,0,-2.5098,-2.5127,-2.5123,-2.5129,-2.5161,-2.5189,-2.5193,-2.5193,-2.5179,-2.5194,-2.52,-2.519,-2.5246,-2.5228,-2.5234,-2.5256,-2.5311,-2.5314,-2.5317,-2.5339,-2.5345,-2.5351,0,0,0,0,0,0,-2.5113,-2.5128,-2.5124,-2.5159,-2.5173,-2.5186,-2.5204,-2.5199,-2.5217,-2.5214,-2.5212,-2.5216,-2.525,-2.5256,-2.5236,-2.5296,-2.5276,-2.5281,-2.529,-2.5297,-2.5302,-2.5299,-2.5216,0,0,0,0,0,-2.5121,-2.5142,-2.5154,-2.5184,-2.5192,-2.5197,-2.5209,-2.5208,-2.5222,-2.5228,-2.5236,-2.525,-2.5271,-2.5285,-2.5304,-2.5343,-2.5347,-2.5361,-2.5366,-2.5371,-2.5374,-2.5397,-2.5404,-2.533,-2.533,-2.533,0,0,-2.5136,-2.5147,-2.516,-2.5188,-2.5198,-2.5221,-2.5202,-2.5226,-2.5243,-2.5231,-2.5262,-2.527,-2.5286,-2.5322,-2.5339,-2.5329,-2.5396,-2.5375,-2.5378,-2.5379,-2.5402,-2.5409,-2.5415,-2.5332,-2.5332,-2.5331,0,0,-2.5176,-2.5186,-2.5213,-2.5225,-2.5243,-2.5247,-2.5254,-2.5269,-2.5274,-2.5306,-2.5299,-2.532,-2.5355,-2.5367,-2.5378,-2.5429,-2.5421,-2.5435,-2.5461,-2.5484,-2.5489,-2.5495,-2.5513,-2.552,-2.5439,-2.5439,-2.5439,0,-2.5192,-2.5226,-2.5227,-2.5253,-2.5266,-2.5259,-2.5287,-2.5299,-2.5322,-2.5331,-2.532,-2.5367,-2.5377,-2.5417,-2.543,-2.5439,-2.5448,-2.5432,-2.5489,-2.5494,-2.5499,-2.5516,-2.5523,-2.5441,-2.5441,-2.544,-2.544,0,-2.5246,-2.527,-2.529,-2.5314,-2.5329,-2.5356,-2.5363,-2.5378,-2.5378,-2.5384,-2.5418,-2.5431,-2.5454,-2.5464,-2.5462,-2.5505,-2.5499,-2.5489,-2.5468,-2.5507,-2.5524,-2.5531,-2.5443,-2.5443,-2.5442,-2.5442,0,0,-2.5291,-2.532,-2.5327,-2.5339,-2.5361,-2.5379,-2.5407,-2.5431,-2.5446,-2.5463,-2.5487,-2.5519,-2.5511,-2.5524,-2.5524,-2.5545,-2.5585,-2.5532,-2.5533,-2.5542,-2.5635,-2.5642,-2.565,-2.5582,-2.5583,-2.5584,-2.5634,0,-2.5332,-2.5381,-2.5386,-2.543,-2.5453,-2.545,-2.5474,-2.5491,-2.5498,-2.552,-2.5528,-2.5552,-2.5539,-2.5547,-2.5567,-2.5576,-2.5604,-2.5573,-2.5604,-2.5605,-2.5598,-2.5659,-2.5665,-2.5711,-2.5641,-2.5642,-2.5642,0,-2.5385,-2.5407,-2.5454,-2.5475,-2.5485,-2.5507,-2.5531,-2.5552,-2.5572,-2.5576,-2.5593,-2.5592,-2.5622,-2.5603,-2.5645,-2.5623,-2.5637,-2.5644,-2.5646,-2.5647,-2.5625,-2.5661,-2.5726,-2.5733,-2.5653,-2.5652,-2.5651,0,-2.5415,-2.5455,-2.5489,-2.55,-2.5525,-2.5541,-2.5553,-2.5572,-2.5587,-2.5609,-2.5619,-2.5644,-2.5657,-2.5677,-2.5683,-2.5669,-2.5726,-2.5706,-2.5731,-2.5731,-2.5741,-2.574,-2.5808,-2.5752,-2.5752,-2.5751,-2.5751,0,-2.5459,-2.5488,-2.5503,-2.5523,-2.5557,-2.5563,-2.5596,-2.5607,-2.5625,-2.5648,-2.5647,-2.5669,-2.5677,-2.5701,-2.5706,-2.5741,-2.5747,-2.5752,-2.5753,-2.5751,-2.5751,-2.5759,-2.5756,-2.5753,-2.5753,-2.5753,-2.5752,0,-2.5496,-2.5507,-2.5544,-2.5567,-2.5574,-2.5597,-2.5617,-2.5638,-2.5647,-2.5678,-2.5685,-2.5699,-2.5728,-2.5737,-2.5771,-2.5775,-2.5816,-2.5814,-2.5809,-2.5809,-2.5833,-2.5831,-2.5908,-2.5919,-2.5856,-2.5856,-2.5857,0,-2.5523,-2.5545,-2.5572,-2.5589,-2.5601,-2.5627,-2.5644,-2.5653,-2.567,-2.5697,-2.5715,-2.5744,-2.5767,-2.5814,-2.5827,-2.5854,-2.5853,-2.5878,-2.5856,-2.5855,-2.5853,-2.5852,-2.5854,-2.5881,-2.5882,-2.5883,-2.5883,0,-2.557,-2.5575,-2.56,-2.5628,-2.5649,-2.567,-2.5691,-2.5705,-2.5717,-2.5738,-2.5768,-2.5786,-2.5823,-2.5852,-2.588,-2.5892,-2.589,-2.5891,-2.5898,-2.5896,-2.5892,-2.5895,-2.582,-2.5888,-2.5888,-2.5887,-2.5887,-2.5887,-2.5602,-2.5623,-2.5647,-2.5675,-2.5693,-2.5714,-2.5735,-2.5749,-2.5775,-2.5806,-2.581,-2.5843,-2.5865,-2.5903,-2.5918,-2.5944,-2.5937,-2.5947,-2.5949,-2.5952,-2.5954,-2.589,-2.5949,-2.5949,-2.5949,-2.5949,-2.5949,0,-2.5649,-2.5666,-2.5692,-2.5723,-2.5746,-2.5745,-2.5769,-2.5789,-2.5818,-2.584,-2.5864,-2.59,-2.593,-2.5947,-2.5977,-2.5995,-2.5995,-2.6003,-2.6001,-2.6004,-2.5958,-2.5949,-2.6002,-2.6002,-2.6002,-2.6002,-2.6002,-2.6002,-2.5677,-2.5713,-2.5722,-2.5768,-2.5784,-2.5817,-2.5832,-2.5852,-2.587,-2.5911,-2.5936,-2.5948,-2.5969,-2.6001,-2.6028,-2.6033,-2.6044,-2.6052,-2.6056,-2.6012,-2.6007,-2.6002,-2.5993,-2.6055,-2.6055,-2.61,-2.61,-2.6101]},{"header":{"parameterUnit":"m.s-1","parameterCategory":1,"la1":30.2991,"la2":30.254,"lo1":-89.0895,"lo2":-89.0444,"dy":0.0017,"dx":0.0017,"nx":28,"ny":28,"refTime":"2023-10-27T21:00:00:Z","depth":0,"parameterNumber":3,"parameterNumberName":"V-component_of_WINDS"},"data":[0,0,0,0,0,0,0,0,0,0,0,0,0,0,0,0,0,0,0,0,0,0,0,0,0,0,0,0,0,0,0,0,0,0,0,0,0,0,0,0,0,0,0,0,0,0,0,0,0,0,0,0,0,0,0,0,0,0,0.5538,0.5538,0,0.5546,0.5546,0.5546,0.5544,0.5543,0.5543,0.5543,0.5547,0.5548,0.5548,0,0,0,0,0,0,0,0,0,0,0,0,0,0.5518,0.5519,0.5538,0.5538,0.5538,0.5546,0.5546,0.5546,0.5544,0.5543,0.5543,0.5543,0.5547,0.5548,0.5548,0,0,0,0,0,0,0,0,0,0,0,0,0,0.5527,0.5519,0.5538,0.5538,0.5538,0.5546,0.5546,0.5546,0.5544,0.5543,0.5543,0.5543,0.5547,0.5548,0.5548,0.5555,0,0,0.5549,0.5549,0,0,0,0,0,0,0,0,0.5526,0.5527,0.5538,0.5538,0.5538,0.5544,0.5541,0.5549,0.5544,0.5541,0.5543,0.5543,0.5546,0.5547,0.5548,0.5555,0.5556,0.5549,0.5549,0.555,0.555,0,0,0,0,0,0,0,0.5526,0.5527,0.5541,0.5538,0.5538,0.5537,0.5538,0.5542,0.5545,0.5542,0.5541,0.5543,0.5546,0.5548,0.5548,0.5556,0.5549,0.555,0.555,0.555,0.5571,0.5572,0,0,0,0,0,0,0.5525,0.5527,0.5541,0.5541,0.5532,0.5537,0.5538,0.5542,0.5545,0.5545,0.5543,0.5542,0.5548,0.5548,0.5549,0.5559,0.555,0.555,0.555,0.5571,0.5571,0.5572,0,0,0,0,0,0,0.5525,0.5527,0.554,0.5534,0.5536,0.5538,0.5542,0.5542,0.5544,0.5546,0.5546,0.5545,0.5547,0.5548,0.5554,0.5559,0.555,0.555,0.5571,0.5571,0.5572,0.5578,0,0,0,0,0,0,0.5524,0.5527,0.5529,0.5534,0.5536,0.5547,0.5542,0.5543,0.5546,0.5545,0.5547,0.5548,0.5547,0.5554,0.5555,0.5559,0.5551,0.557,0.5571,0.5571,0.5578,0.5579,0.558,0,0,0,0,0,0.5524,0.553,0.553,0.5531,0.554,0.5547,0.5548,0.5548,0.5546,0.5549,0.555,0.5547,0.5558,0.5555,0.5556,0.556,0.557,0.5571,0.5571,0.5577,0.5579,0.558,0,0,0,0,0,0,0.5523,0.553,0.553,0.5538,0.5542,0.5546,0.555,0.555,0.5553,0.5553,0.5552,0.5553,0.556,0.556,0.5556,0.5569,0.5564,0.5565,0.5568,0.5569,0.557,0.557,0.5551,0,0,0,0,0,0.5525,0.553,0.5536,0.5542,0.5544,0.5547,0.555,0.555,0.5554,0.5555,0.5557,0.556,0.5564,0.5567,0.557,0.5578,0.5579,0.5582,0.5583,0.5584,0.5585,0.5591,0.5593,0.5574,0.5574,0.5574,0,0,0.5526,0.5531,0.5534,0.5542,0.5545,0.5551,0.5548,0.5554,0.5558,0.5556,0.5563,0.5564,0.5567,0.5575,0.5578,0.5576,0.5591,0.5585,0.5586,0.5586,0.5592,0.5594,0.5595,0.5575,0.5575,0.5575,0,0,0.5532,0.5536,0.5543,0.5547,0.5553,0.5555,0.5557,0.5562,0.5564,0.5571,0.557,0.5575,0.5582,0.5585,0.5587,0.5599,0.5597,0.56,0.5606,0.5612,0.5613,0.5614,0.5619,0.5621,0.5601,0.5601,0.5601,0,0.5533,0.5543,0.5546,0.5553,0.5557,0.5558,0.5564,0.5568,0.5574,0.5577,0.5574,0.5585,0.5587,0.5597,0.56,0.5601,0.5604,0.5599,0.5613,0.5614,0.5615,0.562,0.5622,0.5601,0.5601,0.5601,0.5601,0,0.5545,0.5552,0.5556,0.5565,0.557,0.5576,0.558,0.5584,0.5585,0.5588,0.5596,0.5599,0.5605,0.5607,0.5607,0.5617,0.5616,0.5613,0.5608,0.5618,0.5622,0.5624,0.5602,0.5601,0.5601,0.5601,0,0,0.5549,0.5561,0.5563,0.5568,0.5576,0.5581,0.5589,0.5596,0.56,0.5605,0.5612,0.5619,0.5618,0.5621,0.5621,0.5627,0.5637,0.5624,0.5624,0.5627,0.565,0.5652,0.5654,0.5636,0.5637,0.5637,0.565,0,0.5556,0.5571,0.5575,0.5587,0.5594,0.5596,0.5603,0.5609,0.5612,0.5618,0.5621,0.5627,0.5624,0.5627,0.5632,0.5635,0.5642,0.5634,0.5642,0.5642,0.5642,0.5656,0.5658,0.567,0.5652,0.5652,0.5652,0,0.5566,0.5575,0.5588,0.5598,0.5601,0.5607,0.5615,0.5621,0.5628,0.563,0.5636,0.5636,0.5644,0.564,0.5651,0.5646,0.565,0.5652,0.5653,0.5653,0.5648,0.5658,0.5674,0.5676,0.5655,0.5655,0.5655,0,0.5569,0.5583,0.5594,0.5598,0.5609,0.5614,0.5618,0.5625,0.563,0.5638,0.5641,0.5648,0.5652,0.5658,0.5661,0.5657,0.5673,0.5668,0.5675,0.5675,0.5677,0.5677,0.5695,0.568,0.568,0.5679,0.5679,0,0.5577,0.5586,0.5596,0.5602,0.5612,0.5617,0.5626,0.5631,0.5638,0.5645,0.5647,0.5653,0.5657,0.5664,0.5667,0.5677,0.5678,0.568,0.5681,0.568,0.568,0.5682,0.5682,0.568,0.568,0.568,0.568,0,0.5582,0.5589,0.56,0.5612,0.5615,0.5621,0.5631,0.5637,0.5642,0.5651,0.5653,0.566,0.5669,0.5673,0.5683,0.5685,0.5697,0.5696,0.5695,0.5695,0.5702,0.5702,0.5722,0.5726,0.5708,0.5708,0.5708,0,0.5586,0.5593,0.5606,0.5612,0.5618,0.5627,0.5633,0.5639,0.5645,0.5656,0.5661,0.5671,0.5678,0.5693,0.5698,0.5707,0.5707,0.5713,0.5708,0.5708,0.5708,0.5707,0.5709,0.5714,0.5714,0.5714,0.5714,0,0.5594,0.5598,0.5608,0.5619,0.5627,0.5636,0.5644,0.5649,0.5656,0.5663,0.5674,0.568,0.5693,0.5703,0.5712,0.5716,0.5717,0.5717,0.5719,0.5718,0.5718,0.5719,0.5698,0.5716,0.5716,0.5716,0.5715,0.5715,0.5599,0.5606,0.5617,0.5629,0.5636,0.5645,0.5653,0.566,0.5669,0.5681,0.5684,0.5695,0.5704,0.5717,0.5722,0.5731,0.5729,0.5732,0.5733,0.5734,0.5735,0.5717,0.5733,0.5733,0.5732,0.5732,0.5732,0,0.5608,0.5616,0.5626,0.564,0.5649,0.5651,0.5662,0.5669,0.5679,0.5688,0.5697,0.5711,0.5721,0.5728,0.5739,0.5745,0.5745,0.5747,0.5747,0.5748,0.5735,0.5732,0.5747,0.5747,0.5747,0.5747,0.5747,0.5747,0.5613,0.5626,0.5632,0.565,0.5657,0.567,0.5676,0.5685,0.5692,0.5707,0.5717,0.5723,0.5731,0.5743,0.5753,0.5755,0.5759,0.5761,0.5763,0.575,0.5749,0.5747,0.5745,0.5762,0.5762,0.5775,0.5776,0.5776]}]]